Tracking 26951 objects as of 3-Feb-2023
HD Live streaming from Space Station
objects crossing your sky now

STARLINK-1569

Track STARLINK-1569 now!
10-day predictions
STARLINK-1569 is classified as:


NORAD ID: 46039
Int'l Code: 2020-055N
Perigee: 553.3 km
Apogee: 555.4 km
Inclination: 53.1 °
Period: 95.6 minutes
Semi major axis: 6925 km
RCS: Unknown
Launch date: August 7, 2020
Source: United States (US)
Launch site: AIR FORCE EASTERN TEST RANGE (AFETR)
Your satellite tracking list
Your tracking list is empty




NASA's NSSDC Master Catalog

Two Line Element Set (TLE):
1 46039U 20055N   23034.06703595 -.00001501  00000-0 -81885-4 0  9994
2 46039  53.0574 162.1769 0001552  82.8290 277.2875 15.06402781137960
Source of the keplerian elements: AFSPC